#Datum;Uhrzeit;WR;Pac;DaySum;Status;WR;Pac;DaySum;Status;Pdc1;Udc;Temp;WR;Pac;DaySum;Status;Pdc1;Udc;Temp;WR;Pac;DaySum;Status;Pdc1;Udc;Temp;WR;Pac;DaySum;Status;Pdc1;Pdc2;Udc1;Udc2;Temp;WR;Pac;DaySum;Status;Pdc1;Pdc2;Udc1;Udc2;Temp;WR;Pac;DaySum;Status;Pdc1;Udc;Temp;WR;Pac;DaySum;Status;Pdc1;Udc;Temp;WR;Pac;DaySum;Status;Pdc1;Udc;Temp
03.01.21;23:55:00;1;311;16620;0;2;0;1541;0;0;0;0;3;0;883;0;0;0;0;4;0;1210;0;0;0;0;5;0;0;0;0;0;0;0;0;6;0;2137;0;0;0;0;0;0;7;0;1514;0;0;0;0;8;0;1534;0;0;0;0;9;0;756;0;0;0;0
03.01.21;23:50:00;1;397;16594;0;2;0;1541;0;0;0;0;3;0;883;0;0;0;0;4;0;1210;0;0;0;0;5;0;0;0;0;0;0;0;0;6;0;2137;0;0;0;0;0;0;7;0;1514;0;0;0;0;8;0;1534;0;0;0;0;9;0;756;0;0;0;0
03.01.21;23:45:00;1;431;16561;0;2;0;1541;0;0;0;0;3;0;883;0;0;0;0;4;0;1210;0;0;0;0;5;0;0;0;0;0;0;0;0;6;0;2137;0;0;0;0;0;0;7;0;1514;0;0;0;0;8;0;1534;0;0;0;0;9;0;756;0;0;0;0
03.01.21;23:40:00;1;491;16525;0;2;0;1541;0;0;0;0;3;0;883;0;0;0;0;4;0;1210;0;0;0;0;5;0;0;0;0;0;0;0;0;6;0;2137;0;0;0;0;0;0;7;0;1514;0;0;0;0;8;0;1534;0;0;0;0;9;0;756;0;0;0;0
03.01.21;23:35:00;1;774;16487;0;2;0;1541;0;0;0;0;3;0;883;0;0;0;0;4;0;1210;0;0;0;0;5;0;0;0;0;0;0;0;0;6;0;2137;0;0;0;0;0;0;7;0;1514;0;0;0;0;8;0;1534;0;0;0;0;9;0;756;0;0;0;0
03.01.21;23:30:00;1;312;16426;0;2;0;1541;0;0;0;0;3;0;883;0;0;0;0;4;0;1210;0;0;0;0;5;0;0;0;0;0;0;0;0;6;0;2137;0;0;0;0;0;0;7;0;1514;0;0;0;0;8;0;1534;0;0;0;0;9;0;756;0;0;0;0
03.01.21;23:25:00;1;312;16400;0;2;0;1541;0;0;0;0;3;0;883;0;0;0;0;4;0;1210;0;0;0;0;5;0;0;0;0;0;0;0;0;6;0;2137;0;0;0;0;0;0;7;0;1514;0;0;0;0;8;0;1534;0;0;0;0;9;0;756;0;0;0;0
03.01.21;23:20:00;1;311;16374;0;2;0;1541;0;0;0;0;3;0;883;0;0;0;0;4;0;1210;0;0;0;0;5;0;0;0;0;0;0;0;0;6;0;2137;0;0;0;0;0;0;7;0;1514;0;0;0;0;8;0;1534;0;0;0;0;9;0;756;0;0;0;0
03.01.21;23:15:00;1;366;16348;0;2;0;1541;0;0;0;0;3;0;883;0;0;0;0;4;0;1210;0;0;0;0;5;0;0;0;0;0;0;0;0;6;0;2137;0;0;0;0;0;0;7;0;1514;0;0;0;0;8;0;1534;0;0;0;0;9;0;756;0;0;0;0
03.01.21;23:10:00;1;1082;16318;0;2;0;1541;0;0;0;0;3;0;883;0;0;0;0;4;0;1210;0;0;0;0;5;0;0;0;0;0;0;0;0;6;0;2137;0;0;0;0;0;0;7;0;1514;0;0;0;0;8;0;1534;0;0;0;0;9;0;756;0;0;0;0
03.01.21;23:07:00;1;324;16269;0;2;0;1541;0;0;0;0;3;0;883;0;0;0;0;4;0;1210;0;0;0;0;5;0;0;0;0;0;0;0;0;6;0;2137;0;0;0;0;0;0;7;0;1514;0;0;0;0;8;0;1534;0;0;0;0;9;0;756;0;0;0;0
03.01.21;23:00:00;1;2088;16231;0;2;0;1541;0;0;0;0;3;0;883;0;0;0;0;4;0;1210;0;0;0;0;5;0;0;0;0;0;0;0;0;6;0;2137;0;0;0;0;0;0;7;0;1514;0;0;0;0;8;0;1534;0;0;0;0;9;0;756;0;0;0;0
03.01.21;22:55:00;1;1030;16063;0;2;0;1541;0;0;0;0;3;0;883;0;0;0;0;4;0;1210;0;0;0;0;5;0;0;0;0;0;0;0;0;6;0;2137;2;0;0;0;0;0;7;0;1514;0;0;0;0;8;0;1534;0;0;0;0;9;0;756;0;0;0;0
03.01.21;22:50:00;1;427;15977;0;2;0;1541;0;0;0;0;3;0;883;0;0;0;0;4;0;1210;0;0;0;0;5;0;0;0;0;0;0;0;0;6;0;2137;2;0;0;0;0;0;7;0;1514;0;0;0;0;8;0;1534;0;0;0;0;9;0;756;0;0;0;0
03.01.21;22:45:00;1;625;15942;0;2;0;1541;0;0;0;0;3;0;883;0;0;0;0;4;0;1210;0;0;0;0;5;0;0;0;0;0;0;0;0;6;0;2137;2;0;0;0;0;0;7;0;1514;0;0;0;0;8;0;1534;0;0;0;0;9;0;756;0;0;0;0
03.01.21;22:40:00;1;367;15867;0;2;0;1541;0;0;0;0;3;0;883;0;0;0;0;4;0;1210;0;0;0;0;5;0;0;0;0;0;0;0;0;6;0;2137;2;0;0;0;0;0;7;0;1514;0;0;0;0;8;0;1534;0;0;0;0;9;0;756;0;0;0;0
03.01.21;22:35:00;1;376;15836;0;2;0;1541;0;0;0;0;3;0;883;0;0;0;0;4;0;1210;0;0;0;0;5;0;0;0;0;0;0;0;0;6;0;2137;2;0;0;0;0;0;7;0;1514;0;0;0;0;8;0;1534;0;0;0;0;9;0;756;0;0;0;0
03.01.21;22:30:00;1;420;15805;0;2;0;1541;0;0;0;0;3;0;883;0;0;0;0;4;0;1210;0;0;0;0;5;0;0;0;0;0;0;0;0;6;0;2137;2;0;0;0;0;0;7;0;1514;0;0;0;0;8;0;1534;0;0;0;0;9;0;756;0;0;0;0
03.01.21;22:25:00;1;856;15770;0;2;0;1541;0;0;0;0;3;0;883;0;0;0;0;4;0;1210;0;0;0;0;5;0;0;0;0;0;0;0;0;6;0;2137;2;0;0;0;0;0;7;0;1514;0;0;0;0;8;0;1534;0;0;0;0;9;0;756;0;0;0;0
03.01.21;22:20:00;1;1133;15707;0;2;0;1541;0;0;0;0;3;0;883;0;0;0;0;4;0;1210;0;0;0;0;5;0;0;0;0;0;0;0;0;6;0;2137;2;0;0;0;0;0;7;0;1514;0;0;0;0;8;0;1534;0;0;0;0;9;0;756;0;0;0;0
03.01.21;22:15:00;1;445;15618;0;2;0;1541;0;0;0;0;3;0;883;0;0;0;0;4;0;1210;0;0;0;0;5;0;0;0;0;0;0;0;0;6;0;2137;2;0;0;0;0;0;7;0;1514;0;0;0;0;8;0;1534;0;0;0;0;9;0;756;0;0;0;0
03.01.21;22:10:00;1;471;15581;0;2;0;1541;0;0;0;0;3;0;883;0;0;0;0;4;0;1210;0;0;0;0;5;0;0;0;0;0;0;0;0;6;0;2137;2;0;0;0;0;0;7;0;1514;0;0;0;0;8;0;1534;0;0;0;0;9;0;756;0;0;0;0
03.01.21;22:05:00;1;490;15542;0;2;0;1541;0;0;0;0;3;0;883;0;0;0;0;4;0;1210;0;0;0;0;5;0;0;0;0;0;0;0;0;6;0;2137;2;0;0;0;0;0;7;0;1514;0;0;0;0;8;0;1534;0;0;0;0;9;0;756;0;0;0;0
03.01.21;22:00:00;1;940;15500;0;2;0;1541;0;0;0;0;3;0;883;0;0;0;0;4;0;1210;0;0;0;0;5;0;0;0;0;0;0;0;0;6;0;2137;2;0;0;0;0;0;7;0;1514;0;0;0;0;8;0;1534;0;0;0;0;9;0;756;0;0;0;0
03.01.21;21:55:00;1;493;15430;0;2;0;1541;0;0;0;0;3;0;883;0;0;0;0;4;0;1210;0;0;0;0;5;0;0;0;0;0;0;0;0;6;0;2137;2;0;0;0;0;0;7;0;1514;0;0;0;0;8;0;1534;0;0;0;0;9;0;756;0;0;0;0
03.01.21;21:50:00;1;431;15388;0;2;0;1541;0;0;0;0;3;0;883;0;0;0;0;4;0;1210;0;0;0;0;5;0;0;0;0;0;0;0;0;6;0;2137;2;0;0;0;0;0;7;0;1514;0;0;0;0;8;0;1534;0;0;0;0;9;0;756;0;0;0;0
03.01.21;21:45:00;1;444;15350;0;2;0;1541;0;0;0;0;3;0;883;0;0;0;0;4;0;1210;0;0;0;0;5;0;0;0;0;0;0;0;0;6;0;2137;2;0;0;0;0;0;7;0;1514;0;0;0;0;8;0;1534;0;0;0;0;9;0;756;0;0;0;0
03.01.21;21:40:00;1;470;15314;0;2;0;1541;0;0;0;0;3;0;883;0;0;0;0;4;0;1210;0;0;0;0;5;0;0;0;0;0;0;0;0;6;0;2137;2;0;0;0;0;0;7;0;1514;0;0;0;0;8;0;1534;0;0;0;0;9;0;756;0;0;0;0
03.01.21;21:35:00;1;788;15276;0;2;0;1541;0;0;0;0;3;0;883;0;0;0;0;4;0;1210;0;0;0;0;5;0;0;0;0;0;0;0;0;6;0;2137;2;0;0;0;0;0;7;0;1514;0;0;0;0;8;0;1534;0;0;0;0;9;0;756;0;0;0;0
03.01.21;21:30:00;1;481;15205;0;2;0;1541;0;0;0;0;3;0;883;0;0;0;0;4;0;1210;0;0;0;0;5;0;0;0;0;0;0;0;0;6;0;2137;2;0;0;0;0;0;7;0;1514;0;0;0;0;8;0;1534;0;0;0;0;9;0;756;0;0;0;0
03.01.21;21:25:00;1;515;15165;0;2;0;1541;0;0;0;0;3;0;883;0;0;0;0;4;0;1210;0;0;0;0;5;0;0;0;0;0;0;0;0;6;0;2137;2;0;0;0;0;0;7;0;1514;0;0;0;0;8;0;1534;0;0;0;0;9;0;756;0;0;0;0
03.01.21;21:20:00;1;472;15121;0;2;0;1541;0;0;0;0;3;0;883;0;0;0;0;4;0;1210;0;0;0;0;5;0;0;0;0;0;0;0;0;6;0;2137;2;0;0;0;0;0;7;0;1514;0;0;0;0;8;0;1534;0;0;0;0;9;0;756;0;0;0;0
03.01.21;21:15:00;1;541;15082;0;2;0;1541;0;0;0;0;3;0;883;0;0;0;0;4;0;1210;0;0;0;0;5;0;0;0;0;0;0;0;0;6;0;2137;2;0;0;0;0;0;7;0;1514;0;0;0;0;8;0;1534;0;0;0;0;9;0;756;0;0;0;0
03.01.21;21:10:00;1;1090;15037;0;2;0;1541;0;0;0;0;3;0;883;0;0;0;0;4;0;1210;0;0;0;0;5;0;0;0;0;0;0;0;0;6;0;2137;2;0;0;0;0;0;7;0;1514;0;0;0;0;8;0;1534;0;0;0;0;9;0;756;0;0;0;0
03.01.21;21:05:00;1;669;14949;0;2;0;1541;0;0;0;0;3;0;883;0;0;0;0;4;0;1210;0;0;0;0;5;0;0;0;0;0;0;0;0;6;0;2137;2;0;0;0;0;0;7;0;1514;0;0;0;0;8;0;1534;0;0;0;0;9;0;756;0;0;0;0
03.01.21;21:00:00;1;636;14892;0;2;0;1541;0;0;0;0;3;0;883;0;0;0;0;4;0;1210;0;0;0;0;5;0;0;0;0;0;0;0;0;6;0;2137;2;0;0;0;0;0;7;0;1514;0;0;0;0;8;0;1534;0;0;0;0;9;0;756;0;0;0;0
03.01.21;20:55:00;1;621;14838;0;2;0;1541;0;0;0;0;3;0;883;0;0;0;0;4;0;1210;0;0;0;0;5;0;0;0;0;0;0;0;0;6;0;2137;2;0;0;0;0;0;7;0;1514;0;0;0;0;8;0;1534;0;0;0;0;9;0;756;0;0;0;0
03.01.21;20:50:00;1;577;14785;0;2;0;1541;0;0;0;0;3;0;883;0;0;0;0;4;0;1210;0;0;0;0;5;0;0;0;0;0;0;0;0;6;0;2137;2;0;0;0;0;0;7;0;1514;0;0;0;0;8;0;1534;0;0;0;0;9;0;756;0;0;0;0
03.01.21;20:45:00;1;1076;14736;0;2;0;1541;0;0;0;0;3;0;883;0;0;0;0;4;0;1210;0;0;0;0;5;0;0;0;0;0;0;0;0;6;0;2137;2;0;0;0;0;0;7;0;1514;0;0;0;0;8;0;1534;0;0;0;0;9;0;756;0;0;0;0
03.01.21;20:40:00;1;792;14660;0;2;0;1541;0;0;0;0;3;0;883;0;0;0;0;4;0;1210;0;0;0;0;5;0;0;0;0;0;0;0;0;6;0;2137;2;0;0;0;0;0;7;0;1514;0;0;0;0;8;0;1534;0;0;0;0;9;0;756;0;0;0;0
03.01.21;20:35:00;1;565;14606;0;2;0;1541;0;0;0;0;3;0;883;0;0;0;0;4;0;1210;0;0;0;0;5;0;0;0;0;0;0;0;0;6;0;2137;2;0;0;0;0;0;7;0;1514;0;0;0;0;8;0;1534;0;0;0;0;9;0;756;0;0;0;0
03.01.21;20:30:00;1;702;14559;0;2;0;1541;0;0;0;0;3;0;883;0;0;0;0;4;0;1210;0;0;0;0;5;0;0;0;0;0;0;0;0;6;0;2137;2;0;0;0;0;0;7;0;1514;0;0;0;0;8;0;1534;0;0;0;0;9;0;756;0;0;0;0
03.01.21;20:25:00;1;649;14502;0;2;0;1541;0;0;0;0;3;0;883;0;0;0;0;4;0;1210;0;0;0;0;5;0;0;0;0;0;0;0;0;6;0;2137;2;0;0;0;0;0;7;0;1514;0;0;0;0;8;0;1534;0;0;0;0;9;0;756;0;0;0;0
03.01.21;20:20:00;1;1222;14448;0;2;0;1541;0;0;0;0;3;0;883;0;0;0;0;4;0;1210;0;0;0;0;5;0;0;0;0;0;0;0;0;6;0;2137;2;0;0;0;0;0;7;0;1514;0;0;0;0;8;0;1534;0;0;0;0;9;0;756;0;0;0;0
03.01.21;20:15:00;1;549;14362;0;2;0;1541;0;0;0;0;3;0;883;0;0;0;0;4;0;1210;0;0;0;0;5;0;0;0;0;0;0;0;0;6;0;2137;2;0;0;0;0;0;7;0;1514;0;0;0;0;8;0;1534;0;0;0;0;9;0;756;0;0;0;0
03.01.21;20:10:00;1;546;14316;0;2;0;1541;0;0;0;0;3;0;883;0;0;0;0;4;0;1210;0;0;0;0;5;0;0;0;0;0;0;0;0;6;0;2137;2;0;0;0;0;0;7;0;1514;0;0;0;0;8;0;1534;0;0;0;0;9;0;756;0;0;0;0
03.01.21;20:05:00;1;572;14271;0;2;0;1541;0;0;0;0;3;0;883;0;0;0;0;4;0;1210;0;0;0;0;5;0;0;0;0;0;0;0;0;6;0;2137;2;0;0;0;0;0;7;0;1514;0;0;0;0;8;0;1534;0;0;0;0;9;0;756;0;0;0;0
03.01.21;20:00:00;1;556;14223;0;2;0;1541;0;0;0;0;3;0;883;0;0;0;0;4;0;1210;0;0;0;0;5;0;0;0;0;0;0;0;0;6;0;2137;2;0;0;0;0;0;7;0;1514;0;0;0;0;8;0;1534;0;0;0;0;9;0;756;0;0;0;0
03.01.21;19:55:00;1;785;14175;0;2;0;1541;0;0;0;0;3;0;883;0;0;0;0;4;0;1210;0;0;0;0;5;0;0;0;0;0;0;0;0;6;0;2137;2;0;0;0;0;0;7;0;1514;0;0;0;0;8;0;1534;0;0;0;0;9;0;756;0;0;0;0
03.01.21;19:50:00;1;464;14105;0;2;0;1541;0;0;0;0;3;0;883;0;0;0;0;4;0;1210;0;0;0;0;5;0;0;0;0;0;0;0;0;6;0;2137;2;0;0;0;0;0;7;0;1514;0;0;0;0;8;0;1534;0;0;0;0;9;0;756;0;0;0;0
03.01.21;19:45:00;1;477;14066;0;2;0;1541;0;0;0;0;3;0;883;0;0;0;0;4;0;1210;0;0;0;0;5;0;0;0;0;0;0;0;0;6;0;2137;2;0;0;0;0;0;7;0;1514;0;0;0;0;8;0;1534;0;0;0;0;9;0;756;0;0;0;0
03.01.21;19:40:00;1;506;14026;0;2;0;1541;0;0;0;0;3;0;883;0;0;0;0;4;0;1210;0;0;0;0;5;0;0;0;0;0;0;0;0;6;0;2137;2;0;0;0;0;0;7;0;1514;0;0;0;0;8;0;1534;0;0;0;0;9;0;756;0;0;0;0
03.01.21;19:35:00;1;556;13984;0;2;0;1541;0;0;0;0;3;0;883;0;0;0;0;4;0;1210;0;0;0;0;5;0;0;0;0;0;0;0;0;6;0;2137;0;0;0;0;0;0;7;0;1514;0;0;0;0;8;0;1534;0;0;0;0;9;0;756;0;0;0;0
03.01.21;19:30:00;1;920;13938;0;2;0;1541;0;0;0;0;3;0;883;0;0;0;0;4;0;1210;0;0;0;0;5;0;0;0;0;0;0;0;0;6;0;2137;2;0;0;0;0;0;7;0;1514;0;0;0;0;8;0;1534;0;0;0;0;9;0;756;0;0;0;0
03.01.21;19:25:00;1;798;13862;0;2;0;1541;0;0;0;0;3;0;883;0;0;0;0;4;0;1210;0;0;0;0;5;0;0;0;0;0;0;0;0;6;0;2137;2;0;0;0;0;0;7;0;1514;0;0;0;0;8;0;1534;0;0;0;0;9;0;756;0;0;0;0
03.01.21;19:20:00;1;2648;13796;0;2;0;1541;0;0;0;0;3;0;883;0;0;0;0;4;0;1210;0;0;0;0;5;0;0;0;0;0;0;0;0;6;0;2137;2;0;0;0;0;0;7;0;1514;0;0;0;0;8;0;1534;0;0;0;0;9;0;756;0;0;0;0
03.01.21;19:15:00;1;483;13585;0;2;0;1541;0;0;0;0;3;0;883;0;0;0;0;4;0;1210;0;0;0;0;5;0;0;0;0;0;0;0;0;6;0;2137;2;0;0;0;0;0;7;0;1514;0;0;0;0;8;0;1534;0;0;0;0;9;0;756;0;0;0;0
03.01.21;19:10:00;1;548;13545;0;2;0;1541;0;0;0;0;3;0;883;0;0;0;0;4;0;1210;0;0;0;0;5;0;0;0;0;0;0;0;0;6;0;2137;2;0;0;0;0;0;7;0;1514;0;0;0;0;8;0;1534;0;0;0;0;9;0;756;0;0;0;0
03.01.21;19:05:00;1;1552;13499;0;2;0;1541;0;0;0;0;3;0;883;0;0;0;0;4;0;1210;0;0;0;0;5;0;0;0;0;0;0;0;0;6;0;2137;2;0;0;0;0;0;7;0;1514;0;0;0;0;8;0;1534;0;0;0;0;9;0;756;0;0;0;0
03.01.21;19:00:00;1;1274;13394;0;2;0;1541;0;0;0;0;3;0;883;0;0;0;0;4;0;1210;0;0;0;0;5;0;0;0;0;0;0;0;0;6;0;2137;2;0;0;0;0;0;7;0;1514;0;0;0;0;8;0;1534;0;0;0;0;9;0;756;0;0;0;0
03.01.21;18:55:00;1;531;13297;0;2;0;1541;0;0;0;0;3;0;883;0;0;0;0;4;0;1210;0;0;0;0;5;0;0;0;0;0;0;0;0;6;0;2137;2;0;0;0;0;0;7;0;1514;0;0;0;0;8;0;1534;0;0;0;0;9;0;756;0;0;0;0
03.01.21;18:50:00;1;547;13253;0;2;0;1541;0;0;0;0;3;0;883;0;0;0;0;4;0;1210;0;0;0;0;5;0;0;0;0;0;0;0;0;6;0;2137;2;0;0;0;0;0;7;0;1514;0;0;0;0;8;0;1534;0;0;0;0;9;0;756;0;0;0;0
03.01.21;18:45:00;1;580;13208;0;2;0;1541;0;0;0;0;3;0;883;0;0;0;0;4;0;1210;0;0;0;0;5;0;0;0;0;0;0;0;0;6;0;2137;2;0;0;0;0;0;7;0;1514;0;0;0;0;8;0;1534;0;0;0;0;9;0;756;0;0;0;0
03.01.21;18:40:00;1;1074;13160;0;2;0;1541;0;0;0;0;3;0;883;0;0;0;0;4;0;1210;0;0;0;0;5;0;0;0;0;0;0;0;0;6;0;2137;2;0;0;0;0;0;7;0;1514;0;0;0;0;8;0;1534;0;0;0;0;9;0;756;0;0;0;0
03.01.21;18:35:00;1;681;13074;0;2;0;1541;0;0;0;0;3;0;883;0;0;0;0;4;0;1210;0;0;0;0;5;0;0;0;0;0;0;0;0;6;0;2137;2;0;0;0;0;0;7;0;1514;0;0;0;0;8;0;1534;0;0;0;0;9;0;756;0;0;0;0
03.01.21;18:30:00;1;630;13021;0;2;0;1541;0;0;0;0;3;0;883;0;0;0;0;4;0;1210;0;0;0;0;5;0;0;0;0;0;0;0;0;6;0;2137;2;0;0;0;0;0;7;0;1514;0;0;0;0;8;0;1534;0;0;0;0;9;0;756;0;0;0;0
03.01.21;18:25:00;1;628;12968;0;2;0;1541;0;0;0;0;3;0;883;0;0;0;0;4;0;1210;0;0;0;0;5;0;0;0;0;0;0;0;0;6;0;2137;2;0;0;0;0;0;7;0;1514;0;0;0;0;8;0;1534;0;0;0;0;9;0;756;0;0;0;0
03.01.21;18:20:00;1;637;12916;0;2;0;1541;0;0;0;0;3;0;883;0;0;0;0;4;0;1210;0;0;0;0;5;0;0;0;0;0;0;0;0;6;0;2137;2;0;0;0;0;0;7;0;1514;0;0;0;0;8;0;1534;0;0;0;0;9;0;756;0;0;0;0
03.01.21;18:15:00;1;967;12862;0;2;0;1541;0;0;0;0;3;0;883;0;0;0;0;4;0;1210;0;0;0;0;5;0;0;0;0;0;0;0;0;6;0;2137;2;0;0;0;0;0;7;0;1514;0;0;0;0;8;0;1534;0;0;0;0;9;0;756;0;0;0;0
03.01.21;18:10:00;1;706;12774;0;2;0;1541;0;0;0;0;3;0;883;0;0;0;0;4;0;1210;0;0;0;0;5;0;0;0;0;0;0;0;0;6;0;2137;2;0;0;0;0;0;7;0;1514;0;0;0;0;8;0;1534;0;0;0;0;9;0;756;0;0;0;0
03.01.21;18:05:00;1;1522;12685;0;2;0;1541;0;0;0;0;3;0;883;0;0;0;0;4;0;1210;0;0;0;0;5;0;0;0;0;0;0;0;0;6;0;2137;2;0;0;0;0;0;7;0;1514;0;0;0;0;8;0;1534;0;0;0;0;9;0;756;0;0;0;0
03.01.21;18:00:00;1;1686;12572;0;2;0;1541;0;0;0;0;3;0;883;0;0;0;0;4;0;1210;0;0;0;0;5;0;0;0;0;0;0;0;0;6;0;2137;2;0;0;0;0;0;7;0;1514;0;0;0;0;8;0;1534;0;0;0;0;9;0;756;0;0;0;0
03.01.21;17:55:00;1;1512;12443;0;2;0;1541;0;0;0;0;3;0;883;0;0;0;0;4;0;1210;0;0;0;0;5;0;0;0;0;0;0;0;0;6;0;2137;2;0;0;0;0;0;7;0;1514;0;0;0;0;8;0;1534;0;0;0;0;9;0;756;0;0;0;0
03.01.21;17:50:00;1;2400;12294;0;2;0;1541;0;0;0;0;3;0;883;0;0;0;0;4;0;1210;0;0;0;0;5;0;0;0;0;0;0;0;0;6;0;2137;2;0;0;0;0;0;7;0;1514;0;0;0;0;8;0;1534;0;0;0;0;9;0;756;0;0;0;0
03.01.21;17:45:00;1;2300;12115;0;2;0;1541;0;0;0;0;3;0;883;0;0;0;0;4;0;1210;0;0;0;0;5;0;0;0;0;0;0;0;0;6;0;2137;2;0;0;0;0;0;7;0;1514;0;0;0;0;8;0;1534;0;0;0;0;9;0;756;0;0;0;0
03.01.21;17:40:00;1;4492;11959;0;2;0;1541;0;0;0;0;3;0;883;0;0;0;0;4;0;1210;0;0;0;0;5;0;0;0;0;0;0;0;0;6;0;2137;2;0;0;0;0;0;7;0;1514;0;0;0;0;8;0;1534;0;0;0;0;9;0;756;0;0;0;0
03.01.21;17:35:00;1;2631;11631;0;2;0;1541;0;0;0;0;3;0;883;0;0;0;0;4;0;1210;0;0;0;0;5;0;0;0;0;0;0;0;0;6;0;2137;2;0;0;0;0;0;7;0;1514;0;0;0;0;8;0;1534;0;0;0;0;9;0;756;0;0;0;0
03.01.21;17:30:00;1;898;11381;0;2;0;1541;0;0;0;0;3;0;883;0;0;0;0;4;0;1210;0;0;0;0;5;0;0;0;0;0;0;0;0;6;0;2137;2;0;0;0;0;0;7;0;1514;0;0;0;0;8;0;1534;0;0;0;0;9;0;756;0;0;0;0
03.01.21;17:25:00;1;1222;11306;0;2;0;1541;0;0;0;0;3;0;883;0;0;0;0;4;0;1210;0;0;0;0;5;0;0;0;0;0;0;0;0;6;0;2137;2;0;0;0;0;0;7;0;1514;0;0;0;0;8;0;1534;0;0;0;0;9;0;756;0;0;0;0
03.01.21;17:20:00;1;970;11176;0;2;0;1541;0;0;0;0;3;0;883;0;0;0;0;4;0;1210;0;0;0;0;5;0;0;0;0;0;0;0;0;6;0;2137;2;0;0;0;0;0;7;0;1514;0;0;0;0;8;0;1534;0;0;0;0;9;0;756;0;0;0;0
03.01.21;17:15:00;1;971;11091;0;2;0;1541;0;0;0;0;3;0;883;0;0;0;0;4;0;1210;0;0;0;0;5;0;0;0;0;0;0;0;0;6;0;2137;2;0;0;0;0;0;7;0;1514;0;0;0;0;8;0;1534;0;0;0;0;9;0;756;0;0;0;0
03.01.21;17:10:00;1;942;11009;0;2;0;1541;0;0;0;0;3;0;883;0;0;0;0;4;0;1210;0;0;0;0;5;0;0;0;0;0;0;0;0;6;0;2137;2;0;0;0;0;0;7;0;1514;0;0;0;0;8;0;1534;0;0;0;0;9;0;756;0;0;0;0
03.01.21;17:05:00;1;1359;10930;0;2;0;1541;0;0;0;0;3;0;883;0;0;0;0;4;0;1210;0;0;0;0;5;0;0;0;0;0;0;0;0;6;0;2137;2;0;0;0;0;0;7;0;1514;0;0;0;0;8;0;1534;0;0;0;0;9;0;756;0;0;0;0
03.01.21;17:00:00;1;1043;10807;0;2;0;1541;0;0;0;0;3;0;883;0;0;0;0;4;0;1210;0;0;0;0;5;0;0;0;0;0;0;0;0;6;0;2137;2;0;0;0;0;0;7;0;1514;0;0;0;0;8;0;1534;0;0;0;0;9;0;756;0;0;0;0
03.01.21;16:55:00;1;1050;10719;0;2;0;1541;0;0;0;0;3;0;883;0;0;0;0;4;0;1210;0;0;0;0;5;0;0;0;0;0;0;0;0;6;0;2137;2;0;0;0;0;0;7;0;1514;0;0;0;0;8;0;1534;0;0;0;0;9;0;756;0;0;0;0
03.01.21;16:50:00;1;1047;10631;0;2;0;1541;0;0;0;0;3;0;883;0;0;0;0;4;0;1210;0;0;0;0;5;0;0;0;0;0;0;0;0;6;0;2137;2;0;0;0;0;0;7;0;1514;0;0;0;0;8;0;1534;0;0;0;0;9;0;756;0;0;0;0
03.01.21;16:45:00;1;1002;10534;0;2;0;1541;0;0;0;0;3;0;883;0;0;0;0;4;0;1210;0;0;0;0;5;0;0;0;0;0;0;0;0;6;0;2137;2;0;0;0;0;0;7;0;1514;0;0;0;0;8;0;1534;0;0;0;0;9;0;756;0;0;0;0
03.01.21;16:40:00;1;1795;10449;0;2;0;1541;0;0;0;0;3;0;883;0;0;0;0;4;0;1210;0;0;0;0;5;0;0;0;0;0;0;0;0;6;0;2137;2;0;0;0;0;0;7;0;1514;0;0;0;0;8;0;1534;0;0;0;0;9;0;756;0;0;0;0
03.01.21;16:35:00;1;904;10329;0;2;0;1541;0;0;127;3;3;0;883;6;0;276;10;4;0;1210;0;0;0;0;5;0;0;0;0;0;0;0;0;6;0;2137;2;0;0;0;0;0;7;0;1514;0;0;0;0;8;0;1534;0;0;0;0;9;0;756;0;0;0;0
03.01.21;16:30:00;1;897;10254;0;2;0;1541;6;0;279;7;3;0;883;6;0;302;11;4;0;1210;0;0;0;0;5;0;0;0;0;0;0;0;0;6;0;2137;2;0;0;0;0;0;7;0;1514;0;0;0;0;8;0;1534;0;0;0;0;9;0;756;0;0;0;0
03.01.21;16:25:00;1;869;10179;0;2;0;1541;6;0;304;7;3;0;883;6;0;351;11;4;0;1210;2;0;78;5;5;0;0;0;0;0;0;0;0;6;0;2137;1;0;0;0;0;1;7;0;1514;0;0;0;0;8;0;1534;0;0;0;0;9;0;756;0;0;0;0
03.01.21;16:20:00;1;971;10107;0;2;0;1541;6;0;322;7;3;0;883;6;0;388;11;4;0;1210;1;0;95;5;5;0;0;0;0;0;0;0;0;6;0;2137;0;0;0;0;0;4;7;0;1514;0;0;0;0;8;0;1534;0;0;0;0;9;0;756;0;0;0;0
03.01.21;16:15:00;1;1334;10026;0;2;0;1541;6;0;340;7;3;0;883;6;0;401;11;4;0;1210;1;0;111;6;5;0;0;0;0;0;0;0;0;6;0;2137;2;5;2;128;238;13;7;0;1514;0;0;0;0;8;0;1534;0;0;0;0;9;0;756;0;0;229;6
03.01.21;16:10:00;1;954;9919;0;2;0;1541;6;0;349;8;3;0;883;6;1;404;11;4;0;1210;1;0;120;6;5;0;0;0;0;0;0;0;0;6;0;2137;23;7;4;180;455;19;7;0;1514;0;0;0;0;8;0;1534;0;0;0;0;9;0;756;6;0;278;7
03.01.21;16:05:00;1;949;9839;0;2;0;1541;6;0;361;8;3;0;883;6;0;427;11;4;0;1210;1;0;135;6;5;0;0;0;0;0;0;0;0;6;0;2137;23;7;5;181;507;19;7;0;1514;0;0;216;9;8;0;1534;11;0;263;10;9;0;756;6;0;285;7
03.01.21;16:00:00;1;965;9760;0;2;0;1541;6;0;373;8;3;0;883;6;1;438;11;4;0;1210;1;0;155;6;5;0;0;0;0;0;0;0;0;6;0;2137;23;5;4;181;537;20;7;0;1514;6;0;290;11;8;0;1534;6;0;296;10;9;0;756;6;0;311;7
03.01.21;15:55:00;1;1171;9679;0;2;0;1541;6;0;404;8;3;0;883;6;0;513;11;4;0;1210;1;0;199;7;5;0;0;0;0;0;0;0;0;6;0;2137;23;6;2;350;585;20;7;0;1514;6;0;399;11;8;0;1534;6;0;405;10;9;0;756;6;0;413;7
03.01.21;15:50:00;1;1555;9585;0;2;0;1541;6;0;412;8;3;1;883;4;3;504;11;4;0;1210;3;0;218;7;5;0;0;0;0;0;0;0;0;6;0;2137;8;7;2;458;594;21;7;0;1514;6;0;430;11;8;1;1534;6;0;420;11;9;1;756;3;1;449;7
03.01.21;15:45:00;1;729;9484;0;2;0;1541;6;4;408;8;3;2;883;6;4;510;11;4;0;1210;3;0;227;7;5;0;0;0;0;0;0;0;0;6;0;2137;8;5;2;490;599;21;7;0;1514;4;2;429;11;8;0;1534;4;0;436;11;9;0;756;6;1;476;7
03.01.21;15:40:00;1;780;9424;0;2;5;1541;6;12;402;8;3;2;882;6;5;519;11;4;0;1210;3;0;199;7;5;0;0;0;0;0;0;0;0;6;0;2137;8;4;3;562;604;21;7;2;1514;3;3;432;11;8;0;1534;3;3;435;11;9;4;756;6;3;474;7
03.01.21;15:35:00;1;839;9358;0;2;4;1541;6;7;419;9;3;1;882;6;5;527;11;4;1;1210;3;1;199;7;5;0;0;0;0;0;0;0;0;6;58;2137;4;24;14;455;265;22;7;2;1513;6;8;445;12;8;0;1533;6;3;464;11;9;0;756;6;2;507;7
03.01.21;15:30:00;1;845;9288;0;2;5;1541;6;9;423;9;3;2;882;6;6;534;11;4;7;1210;3;7;199;7;5;0;0;0;0;0;0;0;0;6;68;2132;4;52;30;455;265;22;7;1;1513;6;8;454;12;8;2;1533;6;8;454;11;9;4;756;6;6;501;7
03.01.21;15:25:00;1;1019;9214;0;2;54;1540;4;80;362;9;3;0;882;6;0;567;12;4;13;1209;3;13;198;7;5;0;0;0;0;0;0;0;0;6;86;2126;4;51;31;455;264;22;7;2;1513;6;7;483;12;8;5;1533;6;7;493;12;9;0;755;6;0;567;8
03.01.21;15:20:00;1;788;9116;0;2;68;1536;4;93;374;9;3;5;882;4;9;547;12;4;27;1208;3;28;198;7;5;0;0;0;0;0;0;0;0;6;105;2119;4;72;46;455;264;22;7;35;1513;6;58;381;12;8;33;1533;6;58;391;12;9;5;755;3;12;525;8
03.01.21;15:15:00;1;1200;9053;0;2;79;1530;4;106;375;9;3;17;882;3;30;513;12;4;35;1206;3;36;198;7;5;0;0;0;0;0;0;0;0;6;113;2110;4;68;44;455;265;22;7;57;1510;4;79;355;12;8;53;1530;4;87;432;12;9;4;755;6;7;564;8
03.01.21;15:10:00;1;3291;8981;0;2;83;1523;4;108;377;9;3;7;880;6;12;554;12;4;41;1203;3;43;198;7;5;0;0;0;0;0;0;0;0;6;112;2100;4;65;43;455;265;22;7;55;1505;4;81;360;12;8;52;1526;4;90;448;12;9;10;754;6;16;532;8
03.01.21;15:05:00;1;1096;8729;0;2;92;1517;4;118;378;9;3;17;880;6;27;532;12;4;57;1199;3;59;198;8;5;0;0;0;0;0;0;0;0;6;123;2091;4;74;45;455;265;22;7;75;1501;4;100;422;12;8;57;1521;4;98;472;12;9;6;754;6;10;565;8
03.01.21;15:00:00;1;1410;8655;0;2;98;1509;4;124;381;9;3;8;878;6;13;558;12;4;57;1195;3;59;198;8;5;0;0;0;0;0;0;0;0;6;129;2081;4;77;46;455;265;22;7;70;1494;4;107;438;12;8;81;1516;4;108;443;12;9;13;753;6;19;536;8
03.01.21;14:55:00;1;807;8549;0;2;101;1501;4;127;380;9;3;16;878;6;25;545;12;4;54;1190;3;57;198;8;5;0;0;0;0;0;0;0;0;6;129;2070;4;91;57;455;265;22;7;69;1488;4;108;443;12;8;80;1510;4;109;451;12;9;5;752;6;10;571;8
03.01.21;14:50:00;1;774;8481;0;2;92;1492;4;118;367;9;3;8;876;6;13;556;12;4;46;1185;3;48;198;8;5;0;0;0;0;0;0;0;0;6;125;2059;4;96;58;455;265;22;7;75;1483;4;101;413;12;8;74;1503;4;103;426;12;9;7;752;3;10;565;8
03.01.21;14:45:00;1;671;8417;0;2;97;1485;4;125;382;10;3;16;876;4;24;544;12;4;54;1181;3;56;198;8;5;0;0;0;0;0;0;0;0;6;127;2049;4;82;49;455;265;22;7;72;1476;4;103;430;12;8;76;1497;4;107;441;12;9;6;751;6;8;569;8
03.01.21;14:40:00;1;1260;8360;0;2;119;1477;4;146;368;10;3;66;874;4;100;468;12;4;71;1177;3;74;198;8;5;0;0;0;0;0;0;0;0;6;149;2038;4;89;52;455;265;22;7;86;1470;4;130;456;12;8;91;1490;4;129;466;12;9;9;751;6;12;572;8
03.01.21;14:35:00;1;602;8280;0;2;113;1467;4;140;380;10;3;31;869;6;49;538;12;4;66;1171;3;69;198;8;5;0;0;0;0;0;0;0;0;6;147;2025;4;95;57;455;265;22;7;92;1463;4;130;448;12;8;97;1483;4;128;460;12;9;8;750;6;11;572;9
03.01.21;14:30:00;1;578;8230;0;2;158;1457;4;186;394;10;3;91;867;4;128;497;13;4;112;1165;3;116;225;8;5;0;0;0;0;0;0;0;0;6;186;2013;4;123;77;455;265;22;7;129;1455;4;164;435;12;8;129;1475;4;170;448;12;9;50;749;6;67;526;9
03.01.21;14:25:00;1;562;8182;0;2;181;1444;4;212;395;10;3;108;859;4;146;500;13;4;136;1156;5;141;236;8;5;0;0;0;0;0;0;0;0;6;209;1997;4;148;92;455;265;22;7;160;1445;4;195;461;12;8;164;1464;4;194;415;12;9;86;745;4;116;516;9
03.01.21;14:20:00;1;562;8134;0;2;194;1429;4;226;391;10;3;113;850;4;155;521;13;4;150;1145;5;157;233;8;5;0;0;0;0;0;0;0;0;6;234;1980;4;122;90;455;312;22;7;162;1431;4;214;476;12;8;191;1450;4;225;443;12;9;100;738;4;127;505;9
03.01.21;14:15:00;1;1234;8087;0;2;187;1413;4;218;389;10;3;115;841;4;149;487;13;4;140;1132;5;146;235;8;5;0;0;0;0;0;0;0;0;6;297;1959;4;120;145;463;543;22;7;177;1418;4;212;455;12;8;178;1434;4;212;419;12;9;99;729;4;124;512;9
03.01.21;14:10:00;1;606;8001;0;2;201;1397;4;232;395;10;3;123;831;4;159;511;13;4;152;1120;5;158;230;8;5;0;0;0;0;0;0;0;0;6;348;1934;4;195;205;579;564;22;7;190;1403;4;227;430;12;8;195;1419;4;225;415;12;9;104;721;4;133;512;9
03.01.21;14:05:00;1;553;7950;0;2;208;1380;4;239;391;10;3;125;821;4;162;519;13;4;161;1108;5;168;232;8;5;0;0;0;0;0;0;0;0;6;354;1906;4;161;168;591;563;22;7;212;1387;4;242;441;12;8;214;1403;4;251;455;12;9;115;712;4;142;515;9
03.01.21;14:00:00;1;547;7903;0;2;215;1363;4;249;399;10;3;129;810;4;166;516;13;4;165;1094;5;171;233;8;5;0;0;0;0;0;0;0;0;6;361;1876;4;175;185;585;566;22;7;216;1369;4;254;454;12;8;216;1385;4;258;470;12;9;120;703;4;145;515;9
03.01.21;13:55:00;1;549;7858;0;2;219;1345;4;251;395;10;3;134;799;4;170;500;13;4;169;1080;5;176;232;8;5;0;0;0;0;0;0;0;0;6;372;1845;4;183;190;587;564;22;7;212;1351;4;249;441;12;8;220;1367;4;260;464;12;9;117;693;4;145;512;9
03.01.21;13:50:00;1;588;7811;0;2;256;1327;4;288;401;10;3;157;788;4;195;494;13;4;207;1066;5;216;236;8;5;0;0;0;0;0;0;0;0;6;421;1814;4;207;214;578;565;22;7;242;1334;4;284;453;12;8;251;1349;4;289;463;12;9;134;683;4;162;523;9
03.01.21;13:45:00;1;1028;7758;0;2;276;1305;4;309;396;10;3;169;775;4;209;511;13;4;223;1049;5;232;236;8;5;0;0;0;0;0;0;0;0;6;445;1779;4;232;242;582;569;22;7;275;1314;4;311;469;12;8;281;1328;4;316;480;12;9;150;672;4;179;519;9
03.01.21;13:40:00;1;493;7679;0;2;299;1282;4;334;398;10;3;185;761;4;225;518;13;4;247;1030;5;257;241;8;5;0;0;0;0;0;0;0;0;6;488;1742;4;254;257;595;576;22;7;301;1291;4;334;481;12;8;306;1304;4;337;468;12;9;164;659;4;190;527;9
03.01.21;13:35:00;1;887;7646;0;2;327;1257;4;361;403;10;3;201;746;4;241;497;13;4;270;1010;5;281;239;8;5;0;0;0;0;0;0;0;0;6;515;1701;4;259;261;591;574;22;7;318;1265;4;363;497;12;8;335;1279;4;370;494;12;9;182;646;4;214;535;9
03.01.21;13:30:00;1;2468;7569;0;2;328;1230;4;363;406;10;3;203;729;4;248;517;13;4;270;987;5;282;238;8;5;0;0;0;0;0;0;0;0;6;510;1658;4;233;241;593;579;22;7;322;1239;4;365;494;12;8;339;1251;4;375;492;12;9;187;630;4;216;533;9
03.01.21;13:25:00;1;2239;7378;0;2;319;1203;4;353;398;10;3;199;712;4;237;514;13;4;261;965;5;272;236;8;5;0;0;0;0;0;0;0;0;6;504;1615;4;263;269;593;573;22;7;325;1212;4;358;490;12;8;324;1222;4;365;489;12;9;180;615;4;209;536;9
03.01.21;13:20:00;1;2493;7191;0;2;323;1176;4;357;398;10;3;202;695;4;241;513;13;4;265;943;5;276;238;8;5;0;0;0;0;0;0;0;0;6;514;1573;4;240;243;592;578;22;7;321;1185;4;361;492;12;8;335;1195;4;373;478;12;9;181;600;4;211;523;9
03.01.21;13:15:00;1;1197;6973;0;2;296;1149;4;331;402;10;3;183;678;4;224;514;13;4;242;921;5;252;238;8;5;0;0;0;0;0;0;0;0;6;477;1530;4;241;246;588;571;22;7;329;1158;4;375;483;12;8;334;1167;4;377;492;12;9;186;585;4;216;533;9